Clinton-Sherman, OK

3:04 PM CDT on June 27, 2017 (GMT -0500)
Clinton-Sherman

Weather History for KCSM - February, 2012

Change the Weather History Date:

Thursday, February 2, 2012

  Actual Average Record
Temperature  
Mean Temperature 46 °F -  
Max Temperature 59 °F 48 °F 80 °F (2003)
Min Temperature 34 °F 28 °F 1 °F (2011)
Degree Days  
Heating Degree Days 18    
Moisture  
Dew Point 42 °F    
Average Humidity 75    
Maximum Humidity 94    
Minimum Humidity 60    
Precipitation  
Precipitation 0.00 in - - ()
Sea Level Pressure  
Sea Level Pressure 30.04 in    
Wind  
Wind Speed 11 mph (ESE)    
Max Wind Speed 31 mph    
Max Gust Speed 38 mph    
Visibility 9 miles    
Events Rain    
Averages and records for this station are not official NWS values.
T = Trace of Precipitation, MM = Missing Value Source: NWS Daily Summary

Daily Weather History Graph

Daily Weather History Graph

Search for Another Location

Airport or City:

Trip Planner

Search our weather history database for the weather conditions in past years. The results will help you decide how hot, cold, wet, or windy it might be!

Date:

Astronomy

Feb. 02, 2012 Rise Set
Actual Time 7:35 AM CST 6:05 PM CST
Civil Twilight 7:09 AM CST 6:32 PM CST
Nautical Twilight 6:38 AM CST 7:02 PM CST
Astronomical Twilight 6:08 AM CST 7:32 PM CST
Moon 1:22 PM CST (2/2) 3:15 AM CST (2/2)
Length of Visible Light 11h 23m
Length of Day
10h 29m
Waxing Gibbous, 74% of the Moon is Illuminated
Feb 2
Waxing Gibbous
Feb 7
Full
Feb 14
Last Quarter
Feb 21
New
Feb 29
First Quarter

Hourly Weather History & Observations

Time (CST) Temp. Windchill Dew Point Humidity Pressure Visibility Wind Dir Wind Speed Gust Speed Precip Events Conditions
12:53 AM 44.1 °F 40.1 °F 32.0 °F 63% 30.17 in 10.0 mi ESE 6.9 mph - N/A   Clear
1:53 AM 42.1 °F 36.6 °F 30.9 °F 65% 30.17 in 10.0 mi East 9.2 mph - N/A   Clear
2:53 AM 43.0 °F 38.2 °F 30.9 °F 62% 30.16 in 10.0 mi ESE 8.1 mph - N/A   Clear
3:53 AM 43.0 °F 38.8 °F 30.9 °F 62% 30.14 in 10.0 mi East 6.9 mph - N/A   Clear
4:53 AM 39.9 °F 35.8 °F 30.9 °F 70% 30.15 in 10.0 mi East 5.8 mph - N/A   Clear
5:53 AM 39.0 °F 35.7 °F 30.9 °F 73% 30.15 in 10.0 mi East 4.6 mph - N/A   Clear
6:53 AM 35.1 °F 30.1 °F 30.0 °F 82% 30.16 in 10.0 mi NE 5.8 mph - N/A   Clear
7:53 AM 34.0 °F 31.0 °F 30.9 °F 89% 30.16 in 10.0 mi NE 3.5 mph - N/A   Clear
8:53 AM 39.9 °F 36.7 °F 33.1 °F 77% 30.16 in 10.0 mi East 4.6 mph - N/A   Clear
9:53 AM 46.0 °F 41.0 °F 35.1 °F 66% 30.14 in 10.0 mi ESE 10.4 mph - N/A   Clear
10:53 AM 48.9 °F - 37.0 °F 64% 30.13 in 10.0 mi ESE 9.2 mph - N/A   Clear
11:53 AM 52.0 °F - 41.0 °F 66% 30.10 in 10.0 mi SE 11.5 mph - N/A   Clear
12:53 PM 55.9 °F - 42.1 °F 60% 30.06 in 10.0 mi ESE 10.4 mph - N/A   Clear
1:53 PM 57.9 °F - 44.1 °F 60% 30.01 in 10.0 mi ESE 15.0 mph - N/A   Clear
2:53 PM 59.0 °F - 48.0 °F 67% 29.97 in 10.0 mi ESE 15.0 mph - N/A   Clear
3:53 PM 59.0 °F - 48.9 °F 69% 29.95 in 10.0 mi ESE 23.0 mph - N/A   Scattered Clouds
4:53 PM 59.0 °F - 48.9 °F 69% 29.94 in 10.0 mi ESE 16.1 mph - N/A   Mostly Cloudy
5:32 PM 57.2 °F - 48.2 °F 72% 29.95 in 10.0 mi ESE 13.8 mph - N/A   Overcast
5:53 PM 57.9 °F - 48.0 °F 70% 29.94 in 10.0 mi ESE 10.4 mph - N/A   Overcast
6:53 PM 57.9 °F - 50.0 °F 75% 29.92 in 10.0 mi ESE 21.9 mph 26.5 mph N/A   Overcast
7:53 PM 57.9 °F - 54.0 °F 87% 29.93 in 10.0 mi ESE 16.1 mph - 0.00 in Rain Light Rain
8:53 PM 57.9 °F - 54.0 °F 87% 29.91 in 9.0 mi SE 20.7 mph - 0.00 in   Overcast
9:36 PM 57.2 °F - 55.4 °F 94% 29.90 in 8.0 mi SE 24.2 mph 29.9 mph N/A   Overcast
9:53 PM 57.9 °F - 55.0 °F 90% 29.88 in 8.0 mi SSE 23.0 mph 29.9 mph 0.00 in   Overcast
10:18 PM 59.0 °F - 55.4 °F 88% 29.89 in 6.0 mi SSE 29.9 mph 35.7 mph N/A   Overcast
10:53 PM 57.9 °F - 57.0 °F 97% 29.86 in 4.0 mi SSE 26.5 mph 33.4 mph N/A   Overcast
11:53 PM 59.0 °F - 57.0 °F 93% 29.87 in 6.0 mi SSE 31.1 mph 38.0 mph 0.00 in   Overcast